Tracking 31027 objects as of 19-Jul-2025
HD Live streaming from Space Station
objects crossing your sky now

ARIANE 5 R/B

Track ARIANE 5 R/B now!


NORAD ID: 40942
Int'l Code: 2015-054C
Perigee: 224.6 km
Apogee: 29,460.6 km
Inclination: 6.5 °
Period: 512.5 minutes
Semi major axis: 21213 km
RCS: Unknown
Launch date: September 30, 2015
Source: France (FR)
Launch site: FRENCH GUIANA (FRGUI)

Note: This is a ROCKET BODY
Your satellite tracking list
SPACEBEE-134
Track 1 satellite(s)




NASA's NSSDC Master Catalog

Two Line Element Set (TLE):
1 40942U 15054C   25198.84075752  .00011471  00000-0  11023-2 0  9990
2 40942   6.4740 265.5190 6890858 250.3790  27.6008  2.80983307 89651
Source of the keplerian elements: AFSPC